,,,PA_Meas_PMT16A,,PR_Meas_QMR101_102,,RH_Meas_QMH101,,SR_Meas_QMS101,,TA_Meas_QMH101,,GenWind,,GenWind,
date,time,status,PA,status,PR,status,RH,status,SR,status,TA,status,DirAvg,status,SpdAvg,
2011-04-08, 00:00:04,VALID,1004.81,VALID,0,INVALID,163.609,VALID,0,VALID,25.2981,VALID,5,VALID,0.0542969,
2011-04-08, 00:01:04,VALID,1004.77,VALID,0,INVALID,163.624,VALID,0,VALID,25.3195,VALID,5,VALID,0.244141,
2011-04-08, 00:02:04,VALID,1004.75,VALID,0,INVALID,163.647,VALID,0,VALID,25.2786,VALID,5,VALID,0.107422,
2011-04-08, 00:03:04,VALID,1004.72,VALID,0,INVALID,163.609,VALID,0,VALID,25.3,VALID,5,VALID,0.203516,
2011-04-08, 00:04:04,VALID,1004.7,VALID,0,INVALID,163.632,VALID,0,VALID,25.2611,VALID,5,VALID,0.1625,
2011-04-08, 00:05:04,VALID,1004.7,VALID,0,INVALID,163.617,VALID,0,VALID,25.2007,VALID,5,VALID,0.351953,
2011-04-08, 00:06:04,VALID,1004.65,VALID,0,INVALID,163.639,VALID,0,VALID,25.1637,VALID,5,VALID,0.384375,
2011-04-08, 00:07:04,VALID,1004.62,VALID,0,INVALID,163.647,VALID,0,VALID,25.0839,VALID,5,VALID,0.347266,
2011-04-08, 00:08:04,VALID,1004.62,VALID,0,INVALID,163.655,VALID,0,VALID,25.045,VALID,5,VALID,0.325781,
2011-04-08, 00:09:04,VALID,1004.59,VALID,0,INVALID,163.655,VALID,0,VALID,25.0079,VALID,5,VALID,0.120312,
2011-04-08, 00:10:04,VALID,1004.58,VALID,0,INVALID,163.67,VALID,0,VALID,24.9885,VALID,5,VALID,0.0566406,
2011-04-08, 00:11:04,VALID,1004.56,VALID,0,INVALID,163.662,VALID,0,VALID,24.9495,VALID,5,VALID,0,
2011-04-08, 00:12:04,VALID,1004.55,VALID,0,INVALID,163.662,VALID,0,VALID,24.9282,VALID,5,VALID,0,
2011-04-08, 00:13:04,VALID,1004.57,VALID,0,INVALID,163.655,VALID,0,VALID,24.9106,VALID,5,VALID,0.251953,
2011-04-08, 00:14:04,VALID,1004.56,VALID,0,INVALID,163.67,VALID,0,VALID,24.93,VALID,5,VALID,0.323438,
2011-04-08, 00:15:04,VALID,1004.57,VALID,0,INVALID,163.639,VALID,0,VALID,24.93,VALID,5,VALID,0.320313,
2011-04-08, 00:16:04,VALID,1004.55,VALID,0,INVALID,163.639,VALID,0,VALID,24.8892,VALID,5,VALID,0.423438,
2011-04-08, 00:17:04,VALID,1004.55,VALID,0,INVALID,163.662,VALID,0,VALID,24.8911,VALID,5,VALID,0.319531,
2011-04-08, 00:18:04,VALID,1004.54,VALID,0,INVALID,163.639,VALID,0,VALID,24.8522,VALID,5,VALID,0.269531,
2011-04-08, 00:19:04,VALID,1004.5,VALID,0,INVALID,163.655,VALID,0,VALID,24.8113,VALID,5,VALID,0.154297,
2011-04-08, 00:20:04,VALID,1004.47,VALID,0,INVALID,163.67,VALID,0,VALID,24.7937,VALID,5,VALID,0,
2011-04-08, 00:21:04,VALID,1004.46,VALID,0,INVALID,163.655,VALID,0,VALID,24.8132,VALID,5,VALID,0.0742188,
2011-04-08, 00:22:04,VALID,1004.45,VALID,0,INVALID,163.678,VALID,0,VALID,24.7937,VALID,5,VALID,0.318359,
2011-04-08, 00:23:04,VALID,1004.44,VALID,0,INVALID,163.685,VALID,0,VALID,24.7724,VALID,5,VALID,0.323828,
2011-04-08, 00:24:04,VALID,1004.45,VALID,0,INVALID,163.639,VALID,0,VALID,24.7743,VALID,5,VALID,0.251563,
2011-04-08, 00:25:04,VALID,1004.43,VALID,0,INVALID,163.662,VALID,0,VALID,24.7743,VALID,5,VALID,0.369141,
2011-04-08, 00:26:04,VALID,1004.44,VALID,0,INVALID,163.67,VALID,0,VALID,24.7548,VALID,5,VALID,0.333203,
2011-04-08, 00:27:04,VALID,1004.4,VALID,0,INVALID,163.647,VALID,0,VALID,24.7548,VALID,5,VALID,0.448828,
2011-04-08, 00:28:04,VALID,1004.44,VALID,0,INVALID,163.662,VALID,0,VALID,24.7353,VALID,5,VALID,0.203906,
2011-04-08, 00:29:04,VALID,1004.44,VALID,0,INVALID,163.67,VALID,0,VALID,24.7353,VALID,5,VALID,0.0175781,
2011-04-08, 00:30:04,VALID,1004.42,VALID,0,INVALID,163.678,VALID,0,VALID,24.6964,VALID,5,VALID,0.0234375,
2011-04-08, 00:31:04,VALID,1004.41,VALID,0,INVALID,163.678,VALID,0,VALID,24.714,VALID,5,VALID,0,
2011-04-08, 00:32:04,VALID,1004.38,VALID,0,INVALID,163.678,VALID,0,VALID,24.6964,VALID,5,VALID,0.252344,
2011-04-08, 00:33:04,VALID,1004.42,VALID,0,INVALID,163.647,VALID,0,VALID,24.7159,VALID,5,VALID,0.0695312,
2011-04-08, 00:34:04,VALID,1004.42,VALID,0,INVALID,163.647,VALID,0,VALID,24.675,VALID,5,VALID,0.0515625,
2011-04-08, 00:35:04,VALID,1004.4,VALID,0,INVALID,163.662,VALID,0,VALID,24.6964,VALID,5,VALID,0.171875,
2011-04-08, 00:36:04,VALID,1004.41,VALID,0,INVALID,163.685,VALID,0,VALID,24.6769,VALID,5,VALID,0.195313,
2011-04-08, 00:37:04,VALID,1004.38,VALID,0,INVALID,163.67,VALID,0,VALID,24.6361,VALID,5,VALID,0,
2011-04-08, 00:38:04,VALID,1004.4,VALID,0,INVALID,163.693,VALID,0,VALID,24.6574,VALID,5,VALID,0.187109,
2011-04-08, 00:39:04,VALID,1004.42,VALID,0,INVALID,163.678,VALID,0,VALID,24.638,VALID,5,VALID,0.382422,
2011-04-08, 00:40:04,VALID,1004.42,VALID,0,INVALID,163.693,VALID,0,VALID,24.638,VALID,5,VALID,0.420312,
2011-04-08, 00:41:04,VALID,1004.4,VALID,0,INVALID,163.693,VALID,0,VALID,24.5777,VALID,5,VALID,0.28125,
2011-04-08, 00:42:04,VALID,1004.39,VALID,0,INVALID,163.678,VALID,0,VALID,24.5777,VALID,5,VALID,0.171875,
2011-04-08, 00:43:04,VALID,1004.38,VALID,0,INVALID,163.685,VALID,0,VALID,24.5796,VALID,5,VALID,0,
2011-04-08, 00:44:04,VALID,1004.38,VALID,0,INVALID,163.67,VALID,0.100563,VALID,24.5972,VALID,5,VALID,0.108594,
2011-04-08, 00:45:04,VALID,1004.36,VALID,0,INVALID,163.662,VALID,0.100563,VALID,24.5777,VALID,5,VALID,0.286328,
2011-04-08, 00:46:04,VALID,1004.37,VALID,0,INVALID,163.678,VALID,0.100563,VALID,24.5582,VALID,5,VALID,0.217578,
2011-04-08, 00:47:04,VALID,1004.36,VALID,0,INVALID,163.685,VALID,0.100563,VALID,24.5777,VALID,5,VALID,0,
2011-04-08, 00:48:04,VALID,1004.37,VALID,0,INVALID,163.662,VALID,0,VALID,24.5777,VALID,5,VALID,0,
2011-04-08, 00:49:04,VALID,1004.35,VALID,0,INVALID,163.701,VALID,0.100563,VALID,24.5564,VALID,5,VALID,0,
2011-04-08, 00:50:04,VALID,1004.34,VALID,0,INVALID,163.678,VALID,0.100563,VALID,24.5564,VALID,5,VALID,0,
2011-04-08, 00:51:04,VALID,1004.33,VALID,0,INVALID,163.678,VALID,0.100563,VALID,24.5388,VALID,5,VALID,0,
2011-04-08, 00:52:04,VALID,1004.35,VALID,0,INVALID,163.67,VALID,0.100563,VALID,24.5388,VALID,5,VALID,0.178516,
2011-04-08, 00:53:04,VALID,1004.35,VALID,0,INVALID,163.708,VALID,0,VALID,24.498,VALID,5,VALID,0,
2011-04-08, 00:54:04,VALID,1004.36,VALID,0,INVALID,163.693,VALID,0.100563,VALID,24.498,VALID,5,VALID,0,
2011-04-08, 00:55:04,VALID,1004.36,VALID,0,INVALID,163.678,VALID,0.100563,VALID,24.4998,VALID,5,VALID,0,
2011-04-08, 00:56:04,VALID,1004.36,VALID,0,INVALID,163.701,VALID,0.100563,VALID,24.4804,VALID,5,VALID,0.120312,
2011-04-08, 00:57:04,VALID,1004.37,VALID,0,INVALID,163.685,VALID,0.100563,VALID,24.4396,VALID,7,VALID,0.361719,
2011-04-08, 00:58:04,VALID,1004.36,VALID,0,INVALID,163.708,VALID,0.100563,VALID,24.4609,VALID,8,VALID,0.484375,
2011-04-08, 00:59:04,VALID,1004.41,VALID,0,INVALID,163.678,VALID,0,VALID,24.3812,VALID,8,VALID,0.273047,
2011-04-08, 01:00:04,VALID,1004.39,VALID,0,INVALID,163.708,VALID,0,VALID,24.422,VALID,8,VALID,0.196484,
2011-04-08, 01:01:04,VALID,1004.35,VALID,0,INVALID,163.716,VALID,0,VALID,24.383,VALID,8,VALID,0.207813,
2011-04-08, 01:02:04,VALID,1004.37,VALID,0,INVALID,163.716,VALID,0,VALID,24.3849,VALID,8,VALID,0.216797,
2011-04-08, 01:03:04,VALID,1004.38,VALID,0,INVALID,163.701,VALID,0,VALID,24.3636,VALID,8,VALID,0.278125,
2011-04-08, 01:04:04,VALID,1004.39,VALID,0,INVALID,163.708,VALID,0,VALID,24.3849,VALID,8,VALID,0.226172,
2011-04-08, 01:05:04,VALID,1004.36,VALID,0,INVALID,163.708,VALID,0,VALID,24.3849,VALID,8,VALID,0.380859,
2011-04-08, 01:06:04,VALID,1004.38,VALID,0.5,INVALID,163.678,VALID,0,VALID,24.383,VALID,8,VALID,0.151562,
2011-04-08, 01:07:04,VALID,1004.41,VALID,0,INVALID,163.716,VALID,0,VALID,24.4043,VALID,8,VALID,0.176953,
2011-04-08, 01:08:04,VALID,1004.38,VALID,0,INVALID,163.708,VALID,0,VALID,24.383,VALID,8,VALID,0.222266,
2011-04-08, 01:09:04,VALID,1004.4,VALID,0,INVALID,163.701,VALID,0,VALID,24.4043,VALID,8,VALID,0.238672,
2011-04-08, 01:10:04,VALID,1004.39,VALID,0,INVALID,163.708,VALID,0,VALID,24.383,VALID,8,VALID,0.145313,
2011-04-08, 01:11:04,VALID,1004.41,VALID,0,INVALID,163.693,VALID,0,VALID,24.4043,VALID,8,VALID,0.0304688,
2011-04-08, 01:12:04,VALID,1004.39,VALID,0,INVALID,163.685,VALID,0,VALID,24.4025,VALID,8,VALID,0.185156,
2011-04-08, 01:13:04,VALID,1004.4,VALID,0,INVALID,163.701,VALID,0,VALID,24.4025,VALID,8,VALID,0.367578,
2011-04-08, 01:14:04,VALID,1004.41,VALID,0,INVALID,163.701,VALID,0,VALID,24.4238,VALID,9,VALID,0.316016,
2011-04-08, 01:15:04,VALID,1004.4,VALID,0,INVALID,163.708,VALID,0,VALID,24.4433,VALID,9,VALID,0.476563,
2011-04-08, 01:16:04,VALID,1004.39,VALID,0,INVALID,163.685,VALID,0,VALID,24.4433,VALID,9,VALID,0.387891,
2011-04-08, 01:17:04,VALID,1004.38,VALID,0,INVALID,163.678,VALID,0,VALID,24.4414,VALID,9,VALID,0.259375,
2011-04-08, 01:18:04,VALID,1004.37,VALID,0,INVALID,163.701,VALID,0,VALID,24.4628,VALID,9,VALID,0.453125,
2011-04-08, 01:19:04,VALID,1004.38,VALID,0,INVALID,163.693,VALID,0,VALID,24.4414,VALID,9,VALID,0.353125,
2011-04-08, 01:20:04,VALID,1004.37,VALID,0,INVALID,163.685,VALID,0,VALID,24.4822,VALID,9,VALID,0.349609,
2011-04-08, 01:21:04,VALID,1004.35,VALID,0,INVALID,163.708,VALID,0,VALID,24.4414,VALID,9,VALID,0.344922,
2011-04-08, 01:22:04,VALID,1004.35,VALID,0,INVALID,163.685,VALID,0,VALID,24.4822,VALID,9,VALID,0.332812,
2011-04-08, 01:23:04,VALID,1004.33,VALID,0,INVALID,163.685,VALID,0,VALID,24.4998,VALID,9,VALID,0.301562,
2011-04-08, 01:24:04,VALID,1004.35,VALID,0,INVALID,163.685,VALID,0,VALID,24.4822,VALID,9,VALID,0.389062,
2011-04-08, 01:25:04,VALID,1004.35,VALID,0,INVALID,163.678,VALID,0,VALID,24.4998,VALID,9,VALID,0.317187,
2011-04-08, 01:26:04,VALID,1004.36,VALID,0,INVALID,163.701,VALID,0,VALID,24.4998,VALID,9,VALID,0.325781,
2011-04-08, 01:27:04,VALID,1004.36,VALID,0,INVALID,163.67,VALID,0,VALID,24.5406,VALID,9,VALID,0.353516,
2011-04-08, 01:28:04,VALID,1004.35,VALID,0,INVALID,163.67,VALID,0,VALID,24.5193,VALID,9,VALID,0.425391,
2011-04-08, 01:29:04,VALID,1004.33,VALID,0,INVALID,163.716,VALID,0,VALID,24.5601,VALID,9,VALID,0.30625,
2011-04-08, 01:30:04,VALID,1004.34,VALID,0,INVALID,163.693,VALID,0,VALID,24.5582,VALID,9,VALID,0.348437,
2011-04-08, 01:31:04,VALID,1004.32,VALID,0,INVALID,163.701,VALID,0,VALID,24.5582,VALID,9,VALID,0.433594,
2011-04-08, 01:32:04,VALID,1004.34,VALID,0,INVALID,163.67,VALID,0,VALID,24.5388,VALID,9,VALID,0.503125,
2011-04-08, 01:33:04,VALID,1004.33,VALID,0,INVALID,163.655,VALID,0,VALID,24.5582,VALID,9,VALID,0.421484,
2011-04-08, 01:34:04,VALID,1004.28,VALID,0,INVALID,163.701,VALID,0,VALID,24.5388,VALID,9,VALID,0.498437,
2011-04-08, 01:35:04,VALID,1004.28,VALID,0,INVALID,163.716,VALID,0,VALID,24.5777,VALID,9,VALID,0.321094,
2011-04-08, 01:36:04,VALID,1004.27,VALID,0,INVALID,163.701,VALID,0,VALID,24.5777,VALID,9,VALID,0.492969,
2011-04-08, 01:37:04,VALID,1004.25,VALID,0,INVALID,163.693,VALID,0,VALID,24.599,VALID,9,VALID,0.394141,
2011-04-08, 01:38:04,VALID,1004.22,VALID,0,INVALID,163.685,VALID,0,VALID,24.5972,VALID,9,VALID,0.338672,
2011-04-08, 01:39:04,VALID,1004.19,VALID,0,INVALID,163.693,VALID,0,VALID,24.6185,VALID,9,VALID,0.261719,
2011-04-08, 01:40:04,VALID,1004.21,VALID,0,INVALID,163.693,VALID,0,VALID,24.6361,VALID,9,VALID,0.149219,
2011-04-08, 01:41:04,VALID,1004.18,VALID,0,INVALID,163.685,VALID,0,VALID,24.6361,VALID,9,VALID,0.161719,
2011-04-08, 01:42:04,VALID,1004.17,VALID,0,INVALID,163.662,VALID,0,VALID,24.6574,VALID,9,VALID,0.206641,
2011-04-08, 01:43:04,VALID,1004.17,VALID,0,INVALID,163.693,VALID,0,VALID,24.6361,VALID,9,VALID,0.257031,
2011-04-08, 01:44:04,VALID,1004.14,VALID,0,INVALID,163.693,VALID,0,VALID,24.6361,VALID,9,VALID,0.241406,
2011-04-08, 01:45:04,VALID,1004.12,VALID,0,INVALID,163.67,VALID,0,VALID,24.6361,VALID,9,VALID,0.424609,
2011-04-08, 01:46:04,VALID,1004.12,VALID,0,INVALID,163.685,VALID,0,VALID,24.6166,VALID,9,VALID,0.499219,
2011-04-08, 01:47:04,VALID,1004.09,VALID,0,INVALID,163.662,VALID,0.100563,VALID,24.6361,VALID,9,VALID,0.332812,
2011-04-08, 01:48:04,VALID,1004.09,VALID,0,INVALID,163.67,VALID,0,VALID,24.6556,VALID,9,VALID,0.360156,
2011-04-08, 01:49:04,VALID,1004.07,VALID,0,INVALID,163.678,VALID,0.100563,VALID,24.6556,VALID,9,VALID,0.317969,
2011-04-08, 01:50:04,VALID,1004.07,VALID,0,INVALID,163.678,VALID,0,VALID,24.6556,VALID,9,VALID,0.242969,
2011-04-08, 01:51:04,VALID,1004.05,VALID,0,INVALID,163.693,VALID,0,VALID,24.6945,VALID,9,VALID,0.416797,
2011-04-08, 01:52:04,VALID,1004.05,VALID,0,INVALID,163.685,VALID,0,VALID,24.7159,VALID,9,VALID,0.426172,
2011-04-08, 01:53:04,VALID,1004.04,VALID,0,INVALID,163.701,VALID,0,VALID,24.6964,VALID,9,VALID,0.38125,
2011-04-08, 01:54:04,VALID,1003.99,VALID,0,INVALID,163.693,VALID,0.100563,VALID,24.675,VALID,9,VALID,0.358984,
2011-04-08, 01:55:04,VALID,1003.99,VALID,0,INVALID,163.67,VALID,0.100563,VALID,24.6945,VALID,9,VALID,0.248047,
2011-04-08, 01:56:04,VALID,1003.97,VALID,0,INVALID,163.655,VALID,0,VALID,24.6537,VALID,9,VALID,0.379687,
2011-04-08, 01:57:04,VALID,1004,VALID,0,INVALID,163.693,VALID,0.100563,VALID,24.6556,VALID,9,VALID,0.4375,
2011-04-08, 01:58:04,VALID,1003.97,VALID,0,INVALID,163.693,VALID,0.100563,VALID,24.675,VALID,9,VALID,0.416016,
2011-04-08, 01:59:04,VALID,1003.94,VALID,0,INVALID,163.67,VALID,0,VALID,24.6769,VALID,9,VALID,0.521484,
2011-04-08, 02:00:04,VALID,1003.92,VALID,0,INVALID,163.662,VALID,0,VALID,24.6361,VALID,9,VALID,0.585156,
2011-04-08, 02:01:04,VALID,1003.92,VALID,0,INVALID,163.678,VALID,0,VALID,24.6166,VALID,9,VALID,0.552734,
2011-04-08, 02:02:04,VALID,1003.92,VALID,0,INVALID,163.678,VALID,0,VALID,24.6166,VALID,8,VALID,0.607813,
2011-04-08, 02:03:04,VALID,1003.94,VALID,0,INVALID,163.678,VALID,0.100563,VALID,24.6166,VALID,6,VALID,0.497266,
2011-04-08, 02:04:04,VALID,1003.93,VALID,0,INVALID,163.678,VALID,0.100563,VALID,24.6148,VALID,6,VALID,0.41875,
2011-04-08, 02:05:04,VALID,1003.91,VALID,0,INVALID,163.662,VALID,0.100563,VALID,24.5953,VALID,6,VALID,0.222656,
2011-04-08, 02:06:04,VALID,1003.87,VALID,0,INVALID,163.701,VALID,0,VALID,24.5953,VALID,6,VALID,0.488281,
2011-04-08, 02:07:04,VALID,1003.88,VALID,0,INVALID,163.67,VALID,0.100563,VALID,24.5972,VALID,6,VALID,0.305078,
2011-04-08, 02:08:04,VALID,1003.92,VALID,0,INVALID,163.662,VALID,0,VALID,24.638,VALID,6,VALID,0.425781,
2011-04-08, 02:09:04,VALID,1003.9,VALID,0,INVALID,163.678,VALID,0,VALID,24.6166,VALID,6,VALID,0.208594,
2011-04-08, 02:10:04,VALID,1003.91,VALID,0,INVALID,163.693,VALID,0,VALID,24.6361,VALID,6,VALID,0,
2011-04-08, 02:11:04,VALID,1003.92,VALID,0,INVALID,163.678,VALID,0,VALID,24.6361,VALID,6,VALID,0.233984,
2011-04-08, 02:12:04,VALID,1003.9,VALID,0,INVALID,163.693,VALID,0,VALID,24.6361,VALID,6,VALID,0.230859,
2011-04-08, 02:13:04,VALID,1003.9,VALID,0,INVALID,163.693,VALID,0,VALID,24.638,VALID,6,VALID,0.454688,
2011-04-08, 02:14:04,VALID,1003.89,VALID,0,INVALID,163.662,VALID,0,VALID,24.5972,VALID,9,VALID,0.633203,
2011-04-08, 02:15:04,VALID,1003.91,VALID,0,INVALID,163.678,VALID,0,VALID,24.6166,VALID,9,VALID,0.460938,
2011-04-08, 02:16:04,VALID,1003.89,VALID,0,INVALID,163.701,VALID,0,VALID,24.6361,VALID,9,VALID,0.319922,
2011-04-08, 02:17:04,VALID,1003.9,VALID,0,INVALID,163.693,VALID,0,VALID,24.6361,VALID,9,VALID,0.461328,
2011-04-08, 02:18:04,VALID,1003.87,VALID,0,INVALID,163.67,VALID,0,VALID,24.6574,VALID,9,VALID,0.595312,
2011-04-08, 02:19:04,VALID,1003.89,VALID,0,INVALID,163.678,VALID,0.100563,VALID,24.6361,VALID,7,VALID,0.698828,
2011-04-08, 02:20:04,VALID,1003.85,VALID,0,INVALID,163.685,VALID,0.100563,VALID,24.6574,VALID,3,VALID,0.715625,
2011-04-08, 02:21:04,VALID,1003.85,VALID,0,INVALID,163.685,VALID,0,VALID,24.638,VALID,3,VALID,0.483984,
2011-04-08, 02:22:04,VALID,1003.81,VALID,0,INVALID,163.678,VALID,0.100563,VALID,24.638,VALID,3,VALID,0.322656,
2011-04-08, 02:23:04,VALID,1003.78,VALID,0,INVALID,163.685,VALID,0.100563,VALID,24.6166,VALID,3,VALID,0.235156,
2011-04-08, 02:24:04,VALID,1003.79,VALID,0,INVALID,163.67,VALID,0,VALID,24.638,VALID,3,VALID,0.292969,
2011-04-08, 02:25:04,VALID,1003.78,VALID,0,INVALID,163.685,VALID,0.100563,VALID,24.6166,VALID,3,VALID,0.246484,
2011-04-08, 02:26:04,VALID,1003.78,VALID,0,INVALID,163.678,VALID,0,VALID,24.5972,VALID,3,VALID,0.273047,
2011-04-08, 02:27:04,VALID,1003.78,VALID,0,INVALID,163.678,VALID,0.100563,VALID,24.6166,VALID,3,VALID,0.484766,
2011-04-08, 02:28:04,VALID,1003.76,VALID,0,INVALID,163.678,VALID,0,VALID,24.638,VALID,3,VALID,0.452734,
2011-04-08, 02:29:04,VALID,1003.74,VALID,0,INVALID,163.655,VALID,0.100563,VALID,24.6166,VALID,3,VALID,0.535547,
2011-04-08, 02:30:04,VALID,1003.75,VALID,0,INVALID,163.639,VALID,0,VALID,24.6166,VALID,3,VALID,0.402734,
2011-04-08, 02:31:04,VALID,1003.7,VALID,0,INVALID,163.685,VALID,0,VALID,24.6166,VALID,3,VALID,0.244141,
2011-04-08, 02:32:04,VALID,1003.72,VALID,0,INVALID,163.701,VALID,0,VALID,24.6185,VALID,4,VALID,0.544141,
2011-04-08, 02:33:04,VALID,1003.73,VALID,0,INVALID,163.701,VALID,0,VALID,24.6166,VALID,4,VALID,0.614062,
2011-04-08, 02:34:04,VALID,1003.72,VALID,0,INVALID,163.685,VALID,0,VALID,24.6574,VALID,4,VALID,0.398438,
2011-04-08, 02:35:04,VALID,1003.72,VALID,0,INVALID,163.662,VALID,0.100563,VALID,24.6769,VALID,4,VALID,0.439063,
2011-04-08, 02:36:04,VALID,1003.72,VALID,0,INVALID,163.685,VALID,0.100563,VALID,24.6556,VALID,4,VALID,0.328125,
2011-04-08, 02:37:04,VALID,1003.71,VALID,0,INVALID,163.662,VALID,0,VALID,24.6166,VALID,4,VALID,0.479688,
2011-04-08, 02:38:04,VALID,1003.72,VALID,0,INVALID,163.685,VALID,0,VALID,24.6166,VALID,4,VALID,0.441016,
2011-04-08, 02:39:04,VALID,1003.74,VALID,0,INVALID,163.685,VALID,0,VALID,24.6166,VALID,4,VALID,0.330078,
2011-04-08, 02:40:04,VALID,1003.75,VALID,0,INVALID,163.701,VALID,0.100563,VALID,24.6166,VALID,4,VALID,0.295312,
2011-04-08, 02:41:04,VALID,1003.74,VALID,0,INVALID,163.701,VALID,0,VALID,24.6166,VALID,4,VALID,0.463672,
2011-04-08, 02:42:04,VALID,1003.72,VALID,0,INVALID,163.693,VALID,0,VALID,24.5972,VALID,4,VALID,0.371875,
2011-04-08, 02:43:04,VALID,1003.71,VALID,0,INVALID,163.662,VALID,0,VALID,24.5972,VALID,4,VALID,0.546094,
2011-04-08, 02:44:04,VALID,1003.68,VALID,0,INVALID,163.655,VALID,0,VALID,24.6361,VALID,5,VALID,0.607813,
2011-04-08, 02:45:04,VALID,1003.67,VALID,0,INVALID,163.708,VALID,0,VALID,24.6361,VALID,5,VALID,0.660937,
2011-04-08, 02:46:04,VALID,1003.64,VALID,0,INVALID,163.701,VALID,0,VALID,24.6361,VALID,5,VALID,0.684375,
2011-04-08, 02:47:04,VALID,1003.64,VALID,0,INVALID,163.67,VALID,0,VALID,24.638,VALID,5,VALID,0.484375,
2011-04-08, 02:48:04,VALID,1003.63,VALID,0,INVALID,163.67,VALID,0,VALID,24.6185,VALID,5,VALID,0.475781,
2011-04-08, 02:49:04,VALID,1003.61,VALID,0,INVALID,163.662,VALID,0,VALID,24.5777,VALID,5,VALID,0.398438,
2011-04-08, 02:50:04,VALID,1003.63,VALID,0,INVALID,163.685,VALID,0,VALID,24.599,VALID,5,VALID,0.435156,
2011-04-08, 02:51:04,VALID,1003.63,VALID,0,INVALID,163.678,VALID,0,VALID,24.5972,VALID,5,VALID,0.399219,
2011-04-08, 02:52:04,VALID,1003.61,VALID,0,INVALID,163.662,VALID,0,VALID,24.599,VALID,5,VALID,0.3875,
2011-04-08, 02:53:04,VALID,1003.6,VALID,0,INVALID,163.693,VALID,0,VALID,24.5777,VALID,5,VALID,0.558594,
2011-04-08, 02:54:04,VALID,1003.64,VALID,0,INVALID,163.685,VALID,0,VALID,24.5582,VALID,5,VALID,0.648438,
2011-04-08, 02:55:04,VALID,1003.64,VALID,0,INVALID,163.708,VALID,0,VALID,24.5582,VALID,5,VALID,0.515234,
2011-04-08, 02:56:04,VALID,1003.66,VALID,0,INVALID,163.67,VALID,0,VALID,24.5601,VALID,5,VALID,0.558594,
2011-04-08, 02:57:04,VALID,1003.62,VALID,0,INVALID,163.693,VALID,0,VALID,24.5406,VALID,5,VALID,0.585547,
2011-04-08, 02:58:04,VALID,1003.63,VALID,0,INVALID,163.67,VALID,0,VALID,24.4998,VALID,5,VALID,0.477344,
2011-04-08, 02:59:04,VALID,1003.62,VALID,0,INVALID,163.708,VALID,0,VALID,24.5193,VALID,5,VALID,0.303906,
2011-04-08, 03:00:04,VALID,1003.61,VALID,0,INVALID,163.685,VALID,0,VALID,24.498,VALID,5,VALID,0.370313,
2011-04-08, 03:01:04,VALID,1003.61,VALID,0,INVALID,163.716,VALID,0,VALID,24.4998,VALID,5,VALID,0.328125,
2011-04-08, 03:02:04,VALID,1003.63,VALID,0,INVALID,163.693,VALID,0,VALID,24.4998,VALID,5,VALID,0.340625,
2011-04-08, 03:03:04,VALID,1003.65,VALID,0,INVALID,163.693,VALID,0,VALID,24.5193,VALID,5,VALID,0.305078,
2011-04-08, 03:04:04,VALID,1003.67,VALID,0,INVALID,163.701,VALID,0,VALID,24.5406,VALID,5,VALID,0.353516,
2011-04-08, 03:05:04,VALID,1003.67,VALID,0,INVALID,163.708,VALID,0,VALID,24.5601,VALID,2,VALID,0,
2011-04-08, 03:06:04,VALID,1003.68,VALID,0,INVALID,163.678,VALID,0,VALID,24.5601,VALID,331,VALID,0.352344,
2011-04-08, 03:07:04,VALID,1003.7,VALID,0,INVALID,163.685,VALID,0,VALID,24.599,VALID,299,VALID,0.155469,
2011-04-08, 03:08:04,VALID,1003.73,VALID,0,INVALID,163.701,VALID,0,VALID,24.6148,VALID,259,VALID,0.0753906,
2011-04-08, 03:09:04,VALID,1003.72,VALID,0,INVALID,163.708,VALID,0,VALID,24.6556,VALID,233,VALID,1.28164,
2011-04-08, 03:10:04,VALID,1003.74,VALID,0,INVALID,163.678,VALID,0,VALID,24.6945,VALID,234,VALID,0.952734,
2011-04-08, 03:11:04,VALID,1003.71,VALID,0,INVALID,163.693,VALID,0,VALID,24.714,VALID,227,VALID,1.35078,
2011-04-08, 03:12:04,VALID,1003.71,VALID,0,INVALID,163.662,VALID,0,VALID,24.7743,VALID,225,VALID,1.22891,
2011-04-08, 03:13:04,VALID,1003.71,VALID,0,INVALID,163.655,VALID,0,VALID,24.7724,VALID,215,VALID,1.37227,
2011-04-08, 03:14:04,VALID,1003.71,VALID,0,INVALID,163.662,VALID,0,VALID,24.8113,VALID,271,VALID,0.621094,
2011-04-08, 03:15:04,VALID,1003.7,VALID,0,INVALID,163.67,VALID,0,VALID,24.8327,VALID,260,VALID,0.650781,
2011-04-08, 03:16:04,VALID,1003.64,VALID,0,INVALID,163.678,VALID,0,VALID,24.7724,VALID,299,VALID,1.24961,
2011-04-08, 03:17:04,VALID,1003.6,VALID,0,INVALID,163.67,VALID,0,VALID,24.7724,VALID,302,VALID,1.25859,
2011-04-08, 03:18:04,VALID,1003.57,VALID,0,INVALID,163.678,VALID,0,VALID,24.7724,VALID,337,VALID,0.773438,
2011-04-08, 03:19:04,VALID,1003.53,VALID,0,INVALID,163.685,VALID,0,VALID,24.7919,VALID,356,VALID,0.828125,
2011-04-08, 03:20:04,VALID,1003.48,VALID,0,INVALID,163.639,VALID,0,VALID,24.8113,VALID,304,VALID,0.381641,
2011-04-08, 03:21:04,VALID,1003.4,VALID,0,INVALID,163.67,VALID,0,VALID,24.8132,VALID,326,VALID,0.122266,
2011-04-08, 03:22:04,VALID,1003.4,VALID,0,INVALID,163.685,VALID,0,VALID,24.8113,VALID,326,VALID,0,
2011-04-08, 03:23:04,VALID,1003.36,VALID,0,INVALID,163.701,VALID,0,VALID,24.8113,VALID,327,VALID,0.28125,
2011-04-08, 03:24:04,VALID,1003.33,VALID,0,INVALID,163.701,VALID,0,VALID,24.8132,VALID,5,VALID,0.441016,
2011-04-08, 03:25:04,VALID,1003.33,VALID,0,INVALID,163.685,VALID,0,VALID,24.714,VALID,68,VALID,0.628125,
2011-04-08, 03:26:04,VALID,1003.3,VALID,0,INVALID,163.708,VALID,0,VALID,24.6556,VALID,68,VALID,0.272266,
2011-04-08, 03:27:04,VALID,1003.32,VALID,0,INVALID,163.708,VALID,0,VALID,24.638,VALID,68,VALID,0.191797,
2011-04-08, 03:28:04,VALID,1003.28,VALID,0,INVALID,163.662,VALID,0,VALID,24.5582,VALID,68,VALID,0.273438,
2011-04-08, 03:29:04,VALID,1003.28,VALID,0,INVALID,163.67,VALID,0,VALID,24.5406,VALID,68,VALID,0.289453,
2011-04-08, 03:30:04,VALID,1003.28,VALID,0,INVALID,163.701,VALID,0,VALID,24.4609,VALID,68,VALID,0.404687,
2011-04-08, 03:31:04,VALID,1003.3,VALID,0,INVALID,163.708,VALID,0,VALID,24.4628,VALID,68,VALID,0.284375,
2011-04-08, 03:32:04,VALID,1003.32,VALID,0,INVALID,163.708,VALID,0,VALID,24.4238,VALID,68,VALID,0.435156,
2011-04-08, 03:33:04,VALID,1003.33,VALID,0,INVALID,163.693,VALID,0,VALID,24.3849,VALID,64,VALID,0.565234,
2011-04-08, 03:34:04,VALID,1003.35,VALID,0,INVALID,163.716,VALID,0,VALID,24.3228,VALID,63,VALID,0.548828,
2011-04-08, 03:35:04,VALID,1003.39,VALID,0,INVALID,163.723,VALID,0,VALID,24.3459,VALID,53,VALID,0.648047,
2011-04-08, 03:36:04,VALID,1003.44,VALID,0,INVALID,163.723,VALID,0,VALID,24.307,VALID,53,VALID,0.436719,
2011-04-08, 03:37:04,VALID,1003.45,VALID,0,INVALID,163.716,VALID,0,VALID,24.307,VALID,53,VALID,0.216797,
2011-04-08, 03:38:04,VALID,1003.5,VALID,0,INVALID,163.723,VALID,0,VALID,24.307,VALID,53,VALID,0.328516,
2011-04-08, 03:39:04,VALID,1003.53,VALID,0,INVALID,163.731,VALID,0,VALID,24.307,VALID,356,VALID,0.138281,
2011-04-08, 03:40:04,VALID,1003.55,VALID,0,INVALID,163.693,VALID,0,VALID,24.2857,VALID,345,VALID,0.318359,
2011-04-08, 03:41:04,VALID,1003.56,VALID,0,INVALID,163.731,VALID,0,VALID,24.3052,VALID,344,VALID,0.4625,
2011-04-08, 03:42:04,VALID,1003.53,VALID,0,INVALID,163.693,VALID,0,VALID,24.3246,VALID,200,VALID,0.746094,